Regional Weather Roundup
Issued by NWS

Home | Current Version | Previous Version | Graphics & Text | Print | Product List | Glossary Off
Versions: 1 2 3 4 5 6 7 8 9 10 11 12 13 14 15 16 17 18 19 20 21 22 23 24 25 26 27 28 29 30 31 32 33 34 35 36 37 38 39 40 41 42 43 44 45 46 47 48 49 50

000
ASUS43 KDMX 131008
RWRIA

WEATHER ROUNDUP FOR IOWA
NATIONAL WEATHER SERVICE DES MOINES IA
400 AM CST SAT FEB 13 2016

NOTE: "FAIR" INDICATES FEW OR NO CLOUDS BELOW 12,000 FEET WITH NO
SIGNIFICANT WEATHER AND/OR OBSTRUCTIONS TO VISIBILITY.

* - THESE STATIONS ARE NOT NWS STATIONS...THUS NOT UNDER NWS
QUALITY CONTROL.  THEY ALSO DO NOT REPORT WEATHER SUCH
AS PRECIPITATION OR FOG.

IAZ001>003-012>014-020>022-031>034-043>046-131100-
   NORTHWEST IOWA

CITY           SKY/WX    TMP DP  RH WIND       PRES   REMARKS
CARROLL *      MOCLDY     0  -6  78 N6        30.61F WCI -12
CHEROKEE *     PTCLDY    -2  -6  84 NE3       30.60F
DENISON *      CLOUDY     1  -4  78 NE8       30.59S WCI -12
LE MARS *      CLOUDY     3  -4  72 NE6       30.62S WCI  -8
ORANGE CITY *  MOCLDY     0  -6  78 CALM      30.58S
SHELDON *      CLOUDY    -4  -8  84 NE6       30.57F WCI -16
SIOUX CITY     CLOUDY     6  -5  60 E7        30.62F WCI  -6
SPENCER        CLOUDY    -3 -10  72 N9        30.60S WCI -19
STORM LAKE *   MOCLDY     0  -6  78 NE12      30.57F WCI -18
$$

IAZ055>058-069>071-079>083-090>094-131100-
   SOUTHWEST IOWA

CITY           SKY/WX    TMP DP  RH WIND       PRES   REMARKS
ATLANTIC *     CLOUDY     5  -4  66 E7        30.62S WCI  -7
AUDUBON *      MOCLDY     1  -4  78 N6        30.59F WCI -10
CLARINDA *     CLOUDY    10   1  67 NE8       30.66R WCI  -1
COUNCIL BLFS * CLOUDY     7   0  72 VRB3      30.61S
CRESTON *      CLOUDY     3  -4  72 NE9       30.61F WCI -11
HARLAN  *      CLOUDY     3  -2  78 NE7       30.64F WCI  -9
LAMONI         CLOUDY     5  -2  72 NE10      30.60F WCI -10
RED OAK *      CLOUDY     9   1  72 NE6       30.63S WCI  -1
SHENANDOAH *   CLOUDY    10   1  67 NE5       30.65R WCI   2
$$

IAZ047>049-059>061-072>074-084-131100-
   CENTRAL IOWA

CITY           SKY/WX    TMP DP  RH WIND       PRES   REMARKS
AMES           CLOUDY     0  -6  76 N10       30.63F WCI -16
ANKENY *       CLEAR      1  -4  78 N6        30.65F WCI -10
BOONE *        CLEAR      0  -8  71 N10       30.59F WCI -17
CHARITON *     CLOUDY     1  -4  78 NW3       30.62F
DES MOINES     CLOUDY     3  -5  69 N6        30.63F WCI  -8
GRINNELL*      PTCLDY     1  -4  78 NW6       30.62F WCI -10
KNOXVILLE *    MOCLDY     3  -6  66 N5        30.62F WCI  -6
MARSHALLTOWN   CLOUDY    -3  -8  79 W5        30.62S WCI -13
NEWTON *       CLEAR      1  -4  78 N6        30.63F WCI -10
PELLA *        CLOUDY     1  -4  78 CALM      30.65S
$$

IAZ004>006-015-016-023>025-035-036-131100-
   NORTH CENTRAL IOWA

CITY           SKY/WX    TMP DP  RH WIND       PRES   REMARKS
ALGONA *       CLEAR     -4  -8  84 N6        30.59F WCI -16
CLARION *      CLEAR     -8 -13  77 W5        30.61F WCI -19
ESTHERVILLE    CLOUDY    -6 -10  83 NW7       30.59F WCI -20
FORT DODGE *   CLOUDY    -4 -11  71 N3        30.61F
MASON CITY     CLOUDY    -7 -12  79 N9        30.59F WCI -24
FOREST CITY *  CLEAR     -4  -9  77 CALM      30.58F
WEBSTER CITY * CLEAR     -6 -11  77 N6        30.59F WCI -18
IOWA FALLS *     N/A     -4  -9  77 NW6       30.61F WCI -16
$$

IAZ007>011-017>019-026>030-037>042-050>054-066-131100-
   NORTHEAST IOWA

CITY           SKY/WX    TMP DP  RH WIND       PRES   REMARKS
CEDAR RAPIDS   CLOUDY     2  -6  69 NW7       30.61R WCI -11
CHARLES CITY * CLEAR     -4 -15  59 N9        30.60S WCI -20
CLINTON *      PTCLDY     1  -5  75 NW8       30.61S WCI -13
DECORAH *      CLEAR     -6 -15  65 NW7       30.57S WCI -20
DUBUQUE        CLOUDY     1 -10  60 N10       30.56S WCI -15
MONTICELLO *   CLEAR      0  -9  65 CALM      30.60S
OELWEIN *      CLEAR     -4 -13  65 NW10      30.59S WCI -21
WATERLOO       CLOUDY    -4 -11  72 W7        30.62S WCI -18
$$

IAZ064-065-067-068-078-131100-
   EAST CENTRAL IOWA

CITY           SKY/WX    TMP DP  RH WIND       PRES   REMARKS
DAVENPORT      CLOUDY     3  -6  66 NW6       30.60S WCI  -8
IOWA CITY      CLOUDY     4  -6  63 NW5       30.65R WCI  -5
MT. PLEASANT * CLOUDY     7   0  72 NW5       30.64R WCI  -2
MUSCATINE *    CLEAR      5  -4  66 NW7       30.65S WCI  -7
QUAD CITIES    PTCLDY     6  -7  54 NW10      30.61S WCI  -9
$$

IAZ062-063-075>077-085>089-095>099-131100-
   SOUTHEAST IOWA

CITY           SKY/WX    TMP DP  RH WIND       PRES   REMARKS
BURLINGTON     CLOUDY     5  -3  69 NW5       30.62R WCI  -4
FAIRFIELD *    CLEAR      3  -6  66 W5        30.64S WCI  -6
FORT MADISON * CLEAR      5   0  78 NW6       30.63S WCI  -6
KEOKUK *       CLEAR      7  -2  66 N6        30.63S WCI  -3
OSKALOOSA *      N/A      3  -2  78 NW8       30.64S WCI -10
CENTERVILLE *    N/A      3   0  85 NW7       30.63S WCI  -9
OTTUMWA        CLOUDY     1  -3  83 NW7       30.63F WCI -12
WASHINGTON *   CLEAR      3  -4  72 NW7       30.65S WCI  -9
$$

ABBREVIATIONS USED IN REMARKS
   TC - TEMPERATURES IN CELSIUS
  WCI - WIND CHILL INDEX
   HX - HEAT INDEX
  VSB - VISIBILITY
$$




USA.gov is the U.S. government's official web portal to all federal, state and local government web resources and services.